Regional Weather Roundup
Issued by NWS

Home | Current Version | Previous Version | Text Only | Print | Product List | Glossary Off
Versions: 1 2 3 4 5 6 7 8 9 10 11 12 13 14 15 16 17 18 19 20 21 22 23 24 25 26 27 28 29 30 31 32 33 34 35 36 37 38 39 40 41 42 43 44 45 46 47 48 49 50

296
ASUS44 KJAN 260903
RWRMS

MISSISSIPPI HOURLY WEATHER ROUNDUP
NATIONAL WEATHER SERVICE JACKSON MS
400 AM CDT SUN OCT 26 2014

NOTE: "FAIR: INDICATES FEW OR NO CLOUDS BELOW 12,000 FEET WITH NO
SIGNIFICANT WEATHER AND/OR OBSTRUCTIONS TO VISIBILITY.

MSZ001>002-007>008-010>013-018>021-025>028-034>036-261000-
NORTHWEST MISSISSIPPI

CITY           SKY/WX    TMP DP  RH WIND       PRES   REMARKS
CLARKSDALE     FAIR      61  61 100 S3        30.02S
CLEVELAND      FAIR      61  61 100 SW3       30.01F FOG
GREENWOOD      CLEAR     57  56  96 CALM      30.02F FOG
GREENVILLE     CLEAR     61  59  93 W3        30.01F
GRENADA          N/A    N/A N/A N/A MISG        N/A
OLIVE BRANCH     N/A     57 N/A N/A S5        30.00F VSB 1/2
OXFORD         FAIR      55  55 100 CALM      30.03F FOG
TUNICA         FOG       59  59 100 S6        30.01F VSB 1/4
$$

MSZ003>006-009-014>017-022>024-029>033-037>039-261000-
NORTHEAST MISSISSIPPI

CITY           SKY/WX    TMP DP  RH WIND       PRES   REMARKS
COLUMBUS AFB   CLEAR     55  55 100 CALM      30.02F
CORINTH        FOG       55  55 100 CALM      30.00F VSB 1/2
GOLDN TRIANGLE   N/A    N/A N/A N/A CALM      30.01F VSB 1/2
STARKVILLE       N/A     55  54  94 CALM      30.02F FOG
TUPELO         FOG       59  56  89 CALM      30.01F VSB 1
$$

MSZ040-058-261000-
CENTRAL MISSISSIPPI

CITY           SKY/WX    TMP DP  RH WIND       PRES   REMARKS
JACKSON INTL   CLEAR     56  55  97 CALM      30.04F
JACKSON HAWKNS CLEAR     59  56  89 CALM      30.04S FOG
MERIDIAN KEY   CLEAR     53  51  93 CALM      30.03F
MERIDIAN NAS   CLEAR     57  54  89 W3        30.03F
RAYMOND        FOG       54  50  87 MISG      30.04S VSB 3/4
VICKSBURG      CLEAR     54  53  97 CALM      30.04S FOG
$$

MSZ059>079-261000-
SOUTH MISSISSIPPI

CITY           SKY/WX    TMP DP  RH WIND       PRES   REMARKS
BROOKHAVEN     FAIR      54  54 100 CALM      30.06F FOG
COLUMBIA         N/A     52  52 100 MISG        N/A
HATTIESBURG    CLEAR     56  54  93 CALM      30.04F FOG
MCCOMB         CLEAR     56  53  90 CALM      30.05S
NATCHEZ        CLEAR     55  52  88 CALM      30.05F
PINE BELT      CLEAR     55  52  88 CALM      30.04F
$$

MSZ080>082-261000-
COASTAL MISSISSIPPI

CITY           SKY/WX    TMP DP  RH WIND       PRES   REMARKS
BILOXI         CLEAR     61  59  93 NW3       30.03F
PASCAGOULA     FOG       51  51 100 CALM      30.03S VSB 1/2
GULFPORT       CLEAR     58  56  93 CALM      30.03S
$$



USA.gov is the U.S. government's official web portal to all federal, state and local government web resources and services.